Time,TemperatureF,DewpointF,PressureIn,WindDirection,WindDirectionDegrees,WindSpeedMPH,WindSpeedGustMPH,Humidity,HourlyPrecipIn,Conditions,Clouds,dailyrainin,SoftwareType,DateUTC
2013-05-08 00:00:00,62.6,48.1,29.91,SW,222,0.0,0.0,59,0.00,,,0.00,Wunderground v.1.15,2013-05-08 07:00:00,
2013-05-08 00:10:00,62.4,48.3,29.91,SW,222,0.0,0.0,60,0.00,,,0.00,Wunderground v.1.15,2013-05-08 07:10:00,
2013-05-08 00:20:00,62.1,48.5,29.92,SW,222,0.0,0.0,61,0.00,,,0.00,Wunderground v.1.15,2013-05-08 07:20:00,
2013-05-08 00:30:00,61.6,48.0,29.91,SW,222,0.0,0.0,61,0.00,,,0.00,Wunderground v.1.15,2013-05-08 07:30:00,
2013-05-08 00:40:00,61.3,48.2,29.91,SW,222,0.0,0.0,62,0.00,,,0.00,Wunderground v.1.15,2013-05-08 07:40:00,
2013-05-08 00:50:00,61.2,48.1,29.92,SW,222,0.0,0.0,62,0.00,,,0.00,Wunderground v.1.15,2013-05-08 07:50:00,
2013-05-08 01:01:00,61.0,47.9,29.92,SW,222,0.0,0.0,62,0.00,,,0.00,Wunderground v.1.15,2013-05-08 08:01:00,
2013-05-08 01:10:00,61.0,47.9,29.92,SW,222,0.0,0.0,62,0.00,,,0.00,Wunderground v.1.15,2013-05-08 08:10:00,
2013-05-08 01:20:00,61.0,47.9,29.92,SW,222,0.0,0.0,62,0.00,,,0.00,Wunderground v.1.15,2013-05-08 08:20:00,
2013-05-08 01:30:00,61.0,47.9,29.92,SW,222,0.0,0.0,62,0.00,,,0.00,Wunderground v.1.15,2013-05-08 08:30:00,
2013-05-08 01:40:00,61.0,48.7,29.92,SW,222,0.0,0.0,64,0.00,,,0.00,Wunderground v.1.15,2013-05-08 08:40:00,
2013-05-08 01:50:00,60.7,48.9,29.91,SW,222,0.0,0.0,65,0.00,,,0.00,Wunderground v.1.15,2013-05-08 08:50:00,
2013-05-08 02:01:00,60.4,49.0,29.92,SW,222,0.0,0.0,66,0.00,,,0.00,Wunderground v.1.15,2013-05-08 09:01:00,
2013-05-08 02:10:00,60.2,49.2,29.92,SW,222,0.0,0.0,67,0.00,,,0.00,Wunderground v.1.15,2013-05-08 09:10:00,
2013-05-08 02:20:00,60.1,49.5,29.91,SW,222,0.0,0.0,68,0.00,,,0.00,Wunderground v.1.15,2013-05-08 09:20:00,
2013-05-08 02:30:00,59.9,49.7,29.92,SW,222,0.0,0.0,69,0.00,,,0.00,Wunderground v.1.15,2013-05-08 09:30:00,
2013-05-08 02:40:00,59.6,49.4,29.92,SW,222,1.0,1.0,69,0.00,,,0.00,Wunderground v.1.15,2013-05-08 09:40:00,
2013-05-08 02:50:00,59.5,49.3,29.91,SW,222,0.0,0.0,69,0.00,,,0.00,Wunderground v.1.15,2013-05-08 09:50:00,
2013-05-08 03:00:00,59.3,49.5,29.92,SW,222,1.0,1.0,70,0.00,,,0.00,Wunderground v.1.15,2013-05-08 10:00:00,
2013-05-08 03:10:00,59.2,49.4,29.92,SW,222,1.0,3.0,70,0.00,,,0.00,Wunderground v.1.15,2013-05-08 10:10:00,
2013-05-08 03:20:00,59.0,49.6,29.92,SW,222,0.0,0.0,71,0.00,,,0.00,Wunderground v.1.15,2013-05-08 10:20:00,
2013-05-08 03:30:00,58.9,49.5,29.92,SW,222,2.0,3.0,71,0.00,,,0.00,Wunderground v.1.15,2013-05-08 10:30:00,
2013-05-08 03:40:00,58.7,49.7,29.92,SW,222,2.0,2.0,72,0.00,,,0.00,Wunderground v.1.15,2013-05-08 10:40:00,
2013-05-08 03:50:00,58.7,49.7,29.92,SW,222,1.0,1.0,72,0.00,,,0.00,Wunderground v.1.15,2013-05-08 10:50:00,
2013-05-08 04:01:00,58.7,49.7,29.92,SW,222,1.0,1.0,72,0.00,,,0.00,Wunderground v.1.15,2013-05-08 11:01:00,
2013-05-08 04:10:00,58.7,49.7,29.92,SW,222,0.0,0.0,72,0.00,,,0.00,Wunderground v.1.15,2013-05-08 11:10:00,
2013-05-08 04:20:00,58.6,50.0,29.93,SW,222,0.0,0.0,73,0.00,,,0.00,Wunderground v.1.15,2013-05-08 11:20:00,
2013-05-08 04:30:00,58.4,50.1,29.93,SW,222,0.0,0.0,74,0.00,,,0.00,Wunderground v.1.15,2013-05-08 11:30:00,
2013-05-08 04:40:00,58.3,50.0,29.93,SW,222,0.0,0.0,74,0.00,,,0.00,Wunderground v.1.15,2013-05-08 11:40:00,
2013-05-08 04:50:00,58.1,50.2,29.94,SW,222,0.0,0.0,75,0.00,,,0.00,Wunderground v.1.15,2013-05-08 11:50:00,
2013-05-08 05:01:00,58.0,50.1,29.94,SW,222,0.0,1.0,75,0.00,,,0.00,Wunderground v.1.15,2013-05-08 12:01:00,
2013-05-08 05:10:00,57.8,50.3,29.94,SW,222,0.0,0.0,76,0.00,,,0.00,Wunderground v.1.15,2013-05-08 12:10:00,
2013-05-08 05:20:00,57.6,50.1,29.94,SW,222,0.0,0.0,76,0.00,,,0.00,Wunderground v.1.15,2013-05-08 12:20:00,
2013-05-08 05:30:00,57.5,50.3,29.94,SW,222,1.0,1.0,77,0.00,,,0.00,Wunderground v.1.15,2013-05-08 12:30:00,
2013-05-08 05:40:00,57.3,50.1,29.94,SW,222,1.0,2.0,77,0.00,,,0.00,Wunderground v.1.15,2013-05-08 12:40:00,
2013-05-08 05:50:00,57.2,50.7,29.95,SW,222,1.0,1.0,79,0.00,,,0.01,Wunderground v.1.15,2013-05-08 12:50:00,
2013-05-08 06:01:00,56.7,50.9,29.95,SW,222,1.0,3.0,81,0.00,,,0.01,Wunderground v.1.15,2013-05-08 13:01:00,
2013-05-08 06:10:00,56.5,51.1,29.95,SW,222,1.0,3.0,82,0.00,,,0.01,Wunderground v.1.15,2013-05-08 13:10:00,
2013-05-08 06:20:00,56.2,51.1,29.96,SW,222,1.0,2.0,83,0.00,,,0.01,Wunderground v.1.15,2013-05-08 13:20:00,
2013-05-08 06:30:00,56.0,51.2,29.97,SW,222,1.0,3.0,84,0.00,,,0.01,Wunderground v.1.15,2013-05-08 13:30:00,
2013-05-08 06:40:00,55.9,51.1,29.97,SW,222,1.0,2.0,84,0.00,,,0.01,Wunderground v.1.15,2013-05-08 13:40:00,
2013-05-08 06:50:00,55.7,51.3,29.97,SW,222,1.0,3.0,85,0.00,,,0.01,Wunderground v.1.15,2013-05-08 13:50:00,
2013-05-08 07:01:00,55.6,51.5,29.97,SW,222,1.0,2.0,86,0.00,,,0.01,Wunderground v.1.15,2013-05-08 14:01:00,
2013-05-08 07:10:00,55.6,51.5,29.97,SW,220,2.0,2.0,86,0.00,,,0.01,Wunderground v.1.15,2013-05-08 14:10:00,
2013-05-08 07:20:00,55.4,51.3,29.97,SW,219,2.0,3.0,86,0.00,,,0.01,Wunderground v.1.15,2013-05-08 14:20:00,
2013-05-08 07:30:00,55.4,51.3,29.97,SW,217,2.0,4.0,86,0.00,,,0.01,Wunderground v.1.15,2013-05-08 14:30:00,
2013-05-08 07:40:00,55.4,51.3,29.97,SW,216,2.0,3.0,86,0.00,,,0.01,Wunderground v.1.15,2013-05-08 14:40:00,
2013-05-08 07:50:00,55.3,51.2,29.98,SW,216,2.0,2.0,86,0.00,,,0.01,Wunderground v.1.15,2013-05-08 14:50:00,
2013-05-08 08:01:00,55.4,51.3,29.98,SW,215,2.0,2.0,86,0.00,,,0.01,Wunderground v.1.15,2013-05-08 15:01:00,
2013-05-08 08:10:00,55.3,51.2,29.98,SSW,213,2.0,3.0,86,0.00,,,0.01,Wunderground v.1.15,2013-05-08 15:10:00,
2013-05-08 08:20:00,55.7,51.6,29.99,SSW,213,2.0,2.0,86,0.00,,,0.01,Wunderground v.1.15,2013-05-08 15:20:00,
2013-05-08 08:30:00,55.7,51.6,29.99,SSW,213,4.0,6.0,86,0.00,,,0.01,Wunderground v.1.15,2013-05-08 15:30:00,
2013-05-08 08:40:00,56.2,51.7,29.99,SSW,213,4.0,5.0,85,0.00,,,0.01,Wunderground v.1.15,2013-05-08 15:40:00,
2013-05-08 08:50:00,56.7,52.2,29.99,SSW,208,4.0,6.0,85,0.00,,,0.01,Wunderground v.1.15,2013-05-08 15:50:00,
2013-05-08 09:01:00,56.7,51.6,29.99,SSW,195,6.0,8.0,83,0.00,,,0.01,Wunderground v.1.15,2013-05-08 16:01:00,
2013-05-08 09:10:00,57.2,51.8,29.99,South,186,6.0,6.0,82,0.00,,,0.01,Wunderground v.1.15,2013-05-08 16:10:00,
2013-05-08 09:20:00,58.1,51.6,30.00,SSW,199,7.0,7.0,79,0.00,,,0.01,Wunderground v.1.15,2013-05-08 16:20:00,
2013-05-08 09:30:00,58.9,51.3,30.00,SSW,196,5.0,5.0,76,0.00,,,0.01,Wunderground v.1.15,2013-05-08 16:30:00,
2013-05-08 09:40:00,58.7,50.8,30.00,SSW,200,4.0,4.0,75,0.00,,,0.01,Wunderground v.1.15,2013-05-08 16:40:00,
2013-05-08 09:50:00,58.9,51.3,30.01,SSW,200,2.0,4.0,76,0.00,,,0.01,Wunderground v.1.15,2013-05-08 16:50:00,
2013-05-08 10:00:00,59.0,50.4,30.00,SSW,200,4.0,5.0,73,0.00,,,0.01,Wunderground v.1.15,2013-05-08 17:00:00,
2013-05-08 10:10:00,59.6,50.6,30.00,SSW,200,4.0,4.0,72,0.00,,,0.01,Wunderground v.1.15,2013-05-08 17:10:00,
2013-05-08 10:20:00,60.1,50.3,30.01,SSW,199,3.0,3.0,70,0.00,,,0.01,Wunderground v.1.15,2013-05-08 17:20:00,
2013-05-08 10:30:00,60.5,50.3,30.00,SSW,200,4.0,7.0,69,0.00,,,0.01,Wunderground v.1.15,2013-05-08 17:30:00,
2013-05-08 10:40:00,61.0,50.4,30.00,SSW,200,3.0,4.0,68,0.00,,,0.01,Wunderground v.1.15,2013-05-08 17:40:00,
2013-05-08 10:50:00,61.5,50.0,30.01,SSW,200,2.0,2.0,66,0.00,,,0.01,Wunderground v.1.15,2013-05-08 17:50:00,
2013-05-08 11:00:00,61.6,49.7,30.01,SSW,198,2.0,2.0,65,0.00,,,0.01,Wunderground v.1.15,2013-05-08 18:00:00,
2013-05-08 11:10:00,62.3,49.5,30.01,South,189,2.0,2.0,63,0.00,,,0.01,Wunderground v.1.15,2013-05-08 18:10:00,
2013-05-08 11:20:00,62.7,49.5,30.01,SSW,192,3.0,6.0,62,0.00,,,0.01,Wunderground v.1.15,2013-05-08 18:20:00,
2013-05-08 11:30:00,63.2,49.1,30.01,SSW,198,3.0,6.0,60,0.00,,,0.01,Wunderground v.1.15,2013-05-08 18:30:00,
2013-05-08 11:40:00,63.2,49.5,30.01,SSW,198,3.0,3.0,61,0.00,,,0.01,Wunderground v.1.15,2013-05-08 18:40:00,
2013-05-08 11:50:00,63.7,48.6,30.01,SSW,196,3.0,5.0,58,0.00,,,0.01,Wunderground v.1.15,2013-05-08 18:50:00,
2013-05-08 12:00:00,64.3,48.3,30.00,SSW,198,3.0,7.0,56,0.00,,,0.01,Wunderground v.1.15,2013-05-08 19:00:00,
2013-05-08 12:10:00,65.3,49.2,30.00,SSW,196,3.0,7.0,56,0.00,,,0.01,Wunderground v.1.15,2013-05-08 19:10:00,
2013-05-08 12:20:00,65.8,48.7,30.00,SSW,213,6.0,6.0,54,0.00,,,0.01,Wunderground v.1.15,2013-05-08 19:20:00,
2013-05-08 12:30:00,65.8,47.2,29.99,SSW,209,5.0,5.0,51,0.00,,,0.01,Wunderground v.1.15,2013-05-08 19:30:00,
2013-05-08 12:40:00,66.6,47.9,29.99,SSW,209,3.0,5.0,51,0.00,,,0.01,Wunderground v.1.15,2013-05-08 19:40:00,
2013-05-08 12:50:00,67.8,48.5,29.99,SSW,210,4.0,5.0,50,0.00,,,0.01,Wunderground v.1.15,2013-05-08 19:50:00,
2013-05-08 13:00:00,67.8,47.9,29.99,SSW,209,4.0,4.0,49,0.00,,,0.01,Wunderground v.1.15,2013-05-08 20:00:00,
2013-05-08 13:10:00,69.1,46.9,29.99,SSW,208,3.0,3.0,45,0.00,,,0.01,Wunderground v.1.15,2013-05-08 20:10:00,
2013-05-08 13:20:00,69.1,49.1,29.99,SSW,213,4.0,4.0,49,0.00,,,0.01,Wunderground v.1.15,2013-05-08 20:20:00,
2013-05-08 13:30:00,70.6,47.6,29.98,SSW,210,2.0,6.0,44,0.00,,,0.01,Wunderground v.1.15,2013-05-08 20:30:00,
2013-05-08 13:40:00,70.4,45.6,29.98,SSW,203,4.0,4.0,41,0.00,,,0.01,Wunderground v.1.15,2013-05-08 20:40:00,
2013-05-08 13:50:00,70.8,50.1,29.98,SSW,202,3.0,3.0,48,0.00,,,0.01,Wunderground v.1.15,2013-05-08 20:50:00,
2013-05-08 14:00:00,70.9,46.0,29.97,SSW,210,5.0,7.0,41,0.00,,,0.01,Wunderground v.1.15,2013-05-08 21:00:00,
2013-05-08 14:10:00,71.6,47.9,29.97,SSW,212,3.0,3.0,43,0.00,,,0.01,Wunderground v.1.15,2013-05-08 21:10:00,
2013-05-08 14:20:00,71.5,45.9,29.97,SW,220,5.0,6.0,40,0.00,,,0.01,Wunderground v.1.15,2013-05-08 21:20:00,
2013-05-08 14:30:00,71.3,47.0,29.97,SW,216,4.0,11.0,42,0.00,,,0.01,Wunderground v.1.15,2013-05-08 21:30:00,
2013-05-08 14:40:00,71.1,44.2,29.97,SSW,212,5.0,5.0,38,0.00,,,0.01,Wunderground v.1.15,2013-05-08 21:40:00,
2013-05-08 14:50:00,72.5,45.4,29.97,SSW,200,4.0,4.0,38,0.00,,,0.01,Wunderground v.1.15,2013-05-08 21:50:00,
2013-05-08 15:00:00,73.3,46.2,29.97,SSW,202,3.0,7.0,38,0.00,,,0.01,Wunderground v.1.15,2013-05-08 22:00:00,
2013-05-08 15:10:00,72.8,45.0,29.97,SSW,210,5.0,5.0,37,0.00,,,0.01,Wunderground v.1.15,2013-05-08 22:10:00,
2013-05-08 15:20:00,73.2,46.1,29.96,SSW,209,3.0,6.0,38,0.00,,,0.01,Wunderground v.1.15,2013-05-08 22:20:00,
2013-05-08 15:30:00,73.9,44.5,29.95,SSW,212,3.0,3.0,35,0.00,,,0.01,Wunderground v.1.15,2013-05-08 22:30:00,
2013-05-08 15:40:00,73.3,46.2,29.95,SSW,213,3.0,3.0,38,0.00,,,0.01,Wunderground v.1.15,2013-05-08 22:40:00,
2013-05-08 15:50:00,74.7,42.9,29.95,SW,223,4.0,4.0,32,0.00,,,0.01,Wunderground v.1.15,2013-05-08 22:50:00,
2013-05-08 16:00:00,73.5,43.4,29.94,SSW,206,4.0,4.0,34,0.00,,,0.01,Wunderground v.1.15,2013-05-08 23:00:00,
2013-05-08 16:10:00,73.9,42.2,29.94,SSW,210,4.0,4.0,32,0.00,,,0.01,Wunderground v.1.15,2013-05-08 23:10:00,
2013-05-08 16:20:00,74.0,43.8,29.94,SW,216,5.0,5.0,34,0.00,,,0.01,Wunderground v.1.15,2013-05-08 23:20:00,
2013-05-08 16:30:00,73.9,43.8,29.94,SW,215,4.0,4.0,34,0.00,,,0.01,Wunderground v.1.15,2013-05-08 23:30:00,
2013-05-08 16:40:00,74.0,44.6,29.94,SW,216,3.0,3.0,35,0.00,,,0.01,Wunderground v.1.15,2013-05-08 23:40:00,
2013-05-08 16:50:00,74.2,45.5,29.94,SW,216,5.0,5.0,36,0.00,,,0.01,Wunderground v.1.15,2013-05-08 23:50:00,
2013-05-08 17:00:00,74.6,43.6,29.94,SSW,210,3.0,6.0,33,0.00,,,0.01,Wunderground v.1.15,2013-05-09 00:00:00,
2013-05-08 17:10:00,73.9,43.8,29.94,SSW,210,3.0,3.0,34,0.00,,,0.01,Wunderground v.1.15,2013-05-09 00:10:00,
2013-05-08 17:20:00,74.0,43.8,29.94,SSW,210,2.0,2.0,34,0.00,,,0.01,Wunderground v.1.15,2013-05-09 00:20:00,
2013-05-08 17:30:00,74.2,44.0,29.94,SSW,212,3.0,3.0,34,0.00,,,0.01,Wunderground v.1.15,2013-05-09 00:30:00,
2013-05-08 17:40:00,73.7,45.1,29.94,SSW,203,3.0,5.0,36,0.00,,,0.01,Wunderground v.1.15,2013-05-09 00:40:00,
2013-05-08 17:50:00,73.2,45.4,29.94,SSW,203,3.0,3.0,37,0.00,,,0.01,Wunderground v.1.15,2013-05-09 00:50:00,
2013-05-08 18:00:00,73.0,45.9,29.94,SSW,202,3.0,3.0,38,0.00,,,0.01,Wunderground v.1.15,2013-05-09 01:00:00,
2013-05-08 18:10:00,72.7,45.6,29.94,SSW,200,4.0,6.0,38,0.00,,,0.01,Wunderground v.1.15,2013-05-09 01:10:00,
2013-05-08 18:20:00,72.5,45.4,29.93,SSW,203,3.0,3.0,38,0.00,,,0.01,Wunderground v.1.15,2013-05-09 01:20:00,
2013-05-08 18:30:00,72.1,46.4,29.93,SSW,203,5.0,5.0,40,0.00,,,0.01,Wunderground v.1.15,2013-05-09 01:30:00,
2013-05-08 18:40:00,71.8,47.5,29.93,SW,217,5.0,5.0,42,0.00,,,0.01,Wunderground v.1.15,2013-05-09 01:40:00,
2013-05-08 18:50:00,71.3,48.9,29.93,SW,220,6.0,6.0,45,0.00,,,0.01,Wunderground v.1.15,2013-05-09 01:50:00,
2013-05-08 19:00:00,70.9,49.1,29.93,SW,220,5.0,7.0,46,0.00,,,0.01,Wunderground v.1.15,2013-05-09 02:00:00,
2013-05-08 19:10:00,70.3,49.7,29.93,SW,217,5.0,7.0,48,0.00,,,0.01,Wunderground v.1.15,2013-05-09 02:10:00,
2013-05-08 19:20:00,69.1,49.7,29.94,SW,223,6.0,6.0,50,0.00,,,0.01,Wunderground v.1.15,2013-05-09 02:20:00,
2013-05-08 19:30:00,68.1,49.8,29.94,SW,224,4.0,5.0,52,0.00,,,0.01,Wunderground v.1.15,2013-05-09 02:30:00,
2013-05-08 19:40:00,67.1,49.9,29.94,SW,226,5.0,6.0,54,0.00,,,0.01,Wunderground v.1.15,2013-05-09 02:40:00,
2013-05-08 19:50:00,66.4,49.7,29.95,SW,233,3.0,7.0,55,0.00,,,0.01,Wunderground v.1.15,2013-05-09 02:50:00,
2013-05-08 20:00:00,65.5,48.9,29.95,SW,230,4.0,6.0,55,0.00,,,0.01,Wunderground v.1.15,2013-05-09 03:00:00,
2013-05-08 20:10:00,64.8,49.2,29.95,SW,230,4.0,4.0,57,0.00,,,0.01,Wunderground v.1.15,2013-05-09 03:10:00,
2013-05-08 20:20:00,63.9,49.3,29.96,SW,227,4.0,7.0,59,0.00,,,0.01,Wunderground v.1.15,2013-05-09 03:20:00,
2013-05-08 20:30:00,63.1,49.4,29.96,SW,227,5.0,5.0,61,0.00,,,0.01,Wunderground v.1.15,2013-05-09 03:30:00,
2013-05-08 20:40:00,62.3,49.5,29.96,SW,227,2.0,6.0,63,0.00,,,0.01,Wunderground v.1.15,2013-05-09 03:40:00,
2013-05-08 20:50:00,61.8,49.5,29.96,SW,223,4.0,7.0,64,0.00,,,0.01,Wunderground v.1.15,2013-05-09 03:50:00,
2013-05-08 21:00:00,61.2,48.9,29.97,SW,224,5.0,5.0,64,0.00,,,0.01,Wunderground v.1.15,2013-05-09 04:00:00,
2013-05-08 21:10:00,60.7,48.9,29.97,SW,226,3.0,3.0,65,0.00,,,0.01,Wunderground v.1.15,2013-05-09 04:10:00,
2013-05-08 21:20:00,60.2,49.2,29.97,SW,226,3.0,3.0,67,0.00,,,0.01,Wunderground v.1.15,2013-05-09 04:20:00,
2013-05-08 21:30:00,59.9,49.3,29.98,SW,226,2.0,2.0,68,0.00,,,0.01,Wunderground v.1.15,2013-05-09 04:30:00,
2013-05-08 21:40:00,59.2,49.0,29.98,SW,226,2.0,2.0,69,0.00,,,0.01,Wunderground v.1.15,2013-05-09 04:40:00,
2013-05-08 21:50:00,58.4,48.7,29.99,SW,226,2.0,2.0,70,0.00,,,0.01,Wunderground v.1.15,2013-05-09 04:50:00,
2013-05-08 22:00:00,58.0,48.6,29.99,SW,226,1.0,1.0,71,0.00,,,0.01,Wunderground v.1.15,2013-05-09 05:00:00,
2013-05-08 22:10:00,57.5,48.5,29.99,SW,226,1.0,3.0,72,0.00,,,0.01,Wunderground v.1.15,2013-05-09 05:10:00,
2013-05-08 22:20:00,57.0,48.4,30.00,SW,226,1.0,2.0,73,0.00,,,0.01,Wunderground v.1.15,2013-05-09 05:20:00,
2013-05-08 22:30:00,56.7,48.1,30.00,SW,226,1.0,2.0,73,0.00,,,0.01,Wunderground v.1.15,2013-05-09 05:30:00,
2013-05-08 22:40:00,56.3,47.8,30.00,SW,226,2.0,2.0,73,0.00,,,0.01,Wunderground v.1.15,2013-05-09 05:40:00,
2013-05-08 22:50:00,56.0,47.8,30.00,SW,226,1.0,1.0,74,0.00,,,0.01,Wunderground v.1.15,2013-05-09 05:50:00,
2013-05-08 23:00:00,55.9,48.1,30.00,SW,226,0.0,0.0,75,0.00,,,0.01,Wunderground v.1.15,2013-05-09 06:00:00,
2013-05-08 23:10:00,55.7,47.9,30.00,SW,226,0.0,0.0,75,0.00,,,0.01,Wunderground v.1.15,2013-05-09 06:10:00,
2013-05-08 23:20:00,55.4,47.2,30.01,SW,226,0.0,0.0,74,0.00,,,0.01,Wunderground v.1.15,2013-05-09 06:20:00,
2013-05-08 23:30:00,55.1,47.3,30.01,SW,226,0.0,0.0,75,0.00,,,0.01,Wunderground v.1.15,2013-05-09 06:30:00,
2013-05-08 23:40:00,54.5,46.7,30.01,SW,226,0.0,1.0,75,0.00,,,0.01,Wunderground v.1.15,2013-05-09 06:40:00,
2013-05-08 23:50:00,54.1,47.0,30.01,SW,224,1.0,1.0,77,0.00,,,0.01,Wunderground v.1.15,2013-05-09 06:50:00,